| time (UTC) | temp F | wind direction | speed MPH | gust MPH | rain 1hr in | rain 24hr in | rain mn in | humidity % | barometer mb |
| 20260904061557 | 69 | 360 | 0.0 | 0.0 | 0.00 | 0.02 | 0.00 | 87 | 1012.9 |
| 20260904060056 | 69 | 297 | 0.0 | 0.0 | 0.00 | 0.02 | 0.00 | 87 | 1013.1 |
| 20260904054556 | 69 | 284 | 0.0 | 0.0 | 0.00 | 0.02 | 0.00 | 88 | 1013.1 |
| 20260904053105 | 68 | 287 | 0.0 | 0.0 | 0.00 | 0.02 | 0.00 | 88 | 1013.1 |
| 20260904051552 | 68 | 279 | 0.0 | 0.0 | 0.00 | 0.02 | 0.00 | 88 | 1013.3 |
| 20260904050053 | 68 | 360 | 0.0 | 0.0 | 0.00 | 0.02 | 0.00 | 88 | 1013.2 |
| 20260904044558 | 68 | 360 | 0.0 | 0.0 | 0.00 | 0.02 | 0.00 | 87 | 1013.3 |
| 20260904043056 | 68 | 289 | 0.0 | 0.0 | 0.00 | 0.02 | 0.00 | 87 | 1013.4 |
| 20260904041548 | 68 | 295 | 0.0 | 0.0 | 0.00 | 0.02 | 0.00 | 87 | 1013.6 |
| 20260904040047 | 68 | 286 | 0.0 | 0.0 | 0.00 | 0.02 | 0.00 | 87 | 1013.6 |
| 20260904034545 | 68 | 360 | 0.0 | 0.0 | 0.00 | 0.02 | 0.00 | 88 | 1013.8 |
| 20260904033045 | 68 | 288 | 0.0 | 0.0 | 0.00 | 0.02 | 0.00 | 88 | 1013.8 |
| 20260904031546 | 69 | 292 | 0.0 | 0.0 | 0.00 | 0.02 | 0.00 | 88 | 1014.1 |
| 20260904030055 | 69 | 286 | 0.0 | 0.0 | 0.00 | 0.02 | 0.00 | 88 | 1014.1 |
| 20260904024541 | 69 | 360 | 0.0 | 0.0 | 0.00 | 0.02 | 0.00 | 88 | 1014.3 |
| 20260904023039 | 69 | 360 | 0.0 | 0.0 | 0.00 | 0.02 | 0.00 | 89 | 1014.4 |
| 20260904021549 | 68 | 360 | 0.0 | 0.0 | 0.00 | 0.02 | 0.00 | 89 | 1015.0 |
| 20260904020036 | 68 | 360 | 0.0 | 0.0 | 0.00 | 0.02 | 0.00 | 89 | 1015.0 |
| 20260904014537 | 69 | 296 | 0.0 | 0.0 | 0.00 | 0.02 | 0.00 | 89 | 1015.1 |
| 20260904013034 | 69 | 287 | 0.0 | 0.0 | 0.00 | 0.02 | 0.00 | 89 | 1015.3 |
| 20260904011530 | 69 | 286 | 0.0 | 0.0 | 0.00 | 0.02 | 0.00 | 90 | 1015.3 |
| 20260904010030 | 69 | 289 | 0.0 | 0.0 | 0.00 | 0.02 | 0.00 | 90 | 1015.4 |
| 20260904004529 | 69 | 360 | 0.0 | 0.0 | 0.00 | 0.02 | 0.00 | 90 | 1015.4 |
| 20260904003028 | 69 | 360 | 0.0 | 0.0 | 0.00 | 0.02 | 0.00 | 90 | 1015.5 |
| 20260904001526 | 69 | 286 | 0.0 | 0.0 | 0.00 | 0.02 | 0.00 | 90 | 1015.7 |
| 20260904000025 | 69 | 360 | 0.0 | 0.0 | 0.00 | 0.02 | 0.00 | 89 | 1015.8 |
| 20260903234524 | 69 | 293 | 0.0 | 0.0 | 0.00 | 0.02 | 0.00 | 89 | 1016.1 |
| 20260903233033 | 69 | 360 | 0.0 | 0.0 | 0.00 | 0.02 | 0.00 | 89 | 1016.2 |
| 20260903231538 | 69 | 288 | 0.0 | 0.0 | 0.00 | 0.02 | 0.00 | 88 | 1016.3 |
| 20260903230021 | 69 | 360 | 0.0 | 0.0 | 0.00 | 0.02 | 0.00 | 88 | 1016.2 |
| 20260903224520 | 69 | 360 | 0.0 | 0.0 | 0.00 | 0.02 | 0.00 | 88 | 1016.4 |
| 20260903223018 | 69 | 360 | 0.0 | 0.0 | 0.00 | 0.02 | 0.00 | 89 | 1016.5 |
| 20260903221518 | 69 | 287 | 0.0 | 0.0 | 0.00 | 0.02 | 0.00 | 89 | 1016.5 |
| 20260903220016 | 69 | 287 | 0.0 | 0.0 | 0.00 | 0.02 | 0.02 | 90 | 1016.7 |
| 20260903214515 | 69 | 296 | 0.0 | 0.0 | 0.00 | 0.02 | 0.02 | 89 | 1016.9 |
| 20260903213014 | 69 | 360 | 0.0 | 0.0 | 0.00 | 0.02 | 0.02 | 89 | 1017.0 |
| 20260903211514 | 69 | 360 | 0.0 | 0.0 | 0.00 | 0.02 | 0.02 | 88 | 1017.0 |
| 20260903210014 | 70 | 286 | 0.0 | 0.0 | 0.00 | 0.02 | 0.02 | 87 | 1017.1 |
| 20260903204514 | 70 | 360 | 0.0 | 0.0 | 0.00 | 0.02 | 0.02 | 86 | 1017.2 |
| 20260903203013 | 70 | 360 | 0.0 | 0.0 | 0.00 | 0.02 | 0.02 | 85 | 1017.2 |
| 20260903201512 | 70 | 360 | 0.0 | 0.0 | 0.00 | 0.02 | 0.02 | 85 | 1017.1 |
| 20260903200012 | 70 | 360 | 0.0 | 0.0 | 0.00 | 0.02 | 0.02 | 84 | 1017.2 |
| 20260903194512 | 70 | 360 | 0.0 | 0.0 | 0.00 | 0.02 | 0.02 | 84 | 1017.2 |
| 20260903193013 | 70 | 289 | 0.0 | 0.0 | 0.00 | 0.02 | 0.02 | 84 | 1017.0 |
| 20260903191525 | 70 | 288 | 0.0 | 0.0 | 0.00 | 0.02 | 0.02 | 84 | 1016.8 |
| 20260903190047 | 70 | 288 | 0.0 | 0.0 | 0.00 | 0.12 | 0.02 | 83 | 1017.4 |
| 20260903185557 | 70 | 288 | 0.0 | 0.0 | 0.00 | 0.12 | 0.02 | 83 | 1017.4 |
| 20260903185044 | 71 | 290 | 0.0 | 0.0 | 0.00 | 0.12 | 0.02 | 83 | 1017.3 |
| 20260903184657 | 70 | 290 | 0.0 | 0.0 | 0.00 | 0.02 | 0.02 | 83 | 1017.3 |
| 20260903184556 | 71 | 290 | 0.0 | 0.0 | 0.00 | 0.12 | 0.02 | 83 | 1017.5 |
| 20260903184045 | 71 | 360 | 0.0 | 0.0 | 0.00 | 0.12 | 0.02 | 83 | 1017.4 |
| 20260903183558 | 71 | 360 | 0.0 | 0.0 | 0.00 | 0.12 | 0.02 | 83 | 1017.6 |
| 20260903183050 | 71 | 360 | 0.0 | 0.0 | 0.00 | 0.12 | 0.02 | 82 | 1017.7 |
| 20260903183004 | 71 | 360 | 0.0 | 0.0 | 0.00 | 0.02 | 0.02 | 82 | 1017.5 |
| 20260903182603 | 71 | 360 | 0.0 | 0.0 | 0.00 | 0.12 | 0.02 | 82 | 1017.5 |
| 20260903182050 | 71 | 360 | 0.0 | 0.0 | 0.00 | 0.12 | 0.02 | 82 | 1017.5 |
| 20260903181601 | 71 | 360 | 0.0 | 0.0 | 0.00 | 0.12 | 0.02 | 82 | 1017.3 |
| 20260903181050 | 72 | 288 | 0.0 | 0.0 | 0.00 | 0.12 | 0.02 | 82 | 1017.2 |
| 20260903180631 | 72 | 360 | 0.0 | 0.0 | 0.00 | 0.12 | 0.02 | 81 | 1017.3 |
| 20260903180043 | 71 | 360 | 0.0 | 0.0 | 0.00 | 0.02 | 0.02 | 81 | 1017.0 |
| 20260903174538 | 72 | 289 | 0.0 | 0.0 | 0.00 | 0.02 | 0.02 | 81 | 1017.2 |
| 20260903173037 | 72 | 360 | 0.0 | 0.0 | 0.00 | 0.02 | 0.02 | 80 | 1017.0 |
| 20260903171543 | 72 | 290 | 0.0 | 0.0 | 0.00 | 0.02 | 0.02 | 80 | 1017.0 |
| 20260903170043 | 72 | 360 | 0.0 | 0.0 | 0.00 | 0.02 | 0.02 | 79 | 1016.9 |
| 20260903164537 | 72 | 293 | 0.0 | 0.0 | 0.00 | 0.02 | 0.02 | 79 | 1016.7 |
| 20260903163040 | 73 | 306 | 0.0 | 0.0 | 0.00 | 0.02 | 0.02 | 78 | 1016.7 |
| 20260903161536 | 73 | 289 | 0.0 | 0.0 | 0.00 | 0.02 | 0.02 | 78 | 1016.8 |
| 20260903160035 | 73 | 290 | 0.0 | 0.0 | 0.00 | 0.02 | 0.02 | 78 | 1017.0 |
| 20260903154534 | 73 | 296 | 0.0 | 0.0 | 0.00 | 0.02 | 0.02 | 78 | 1017.1 |
| 20260903153032 | 73 | 360 | 0.0 | 0.0 | 0.00 | 0.02 | 0.02 | 79 | 1017.2 |
| 20260903151532 | 72 | 289 | 0.0 | 0.0 | 0.00 | 0.02 | 0.02 | 79 | 1017.2 |
| 20260903150043 | 72 | 360 | 0.0 | 0.0 | 0.00 | 0.02 | 0.02 | 79 | 1017.2 |
| 20260903144530 | 72 | 360 | 0.0 | 0.0 | 0.00 | 0.02 | 0.02 | 80 | 1017.2 |
| 20260903143036 | 72 | 298 | 0.0 | 0.0 | 0.00 | 0.02 | 0.02 | 80 | 1017.2 |
| 20260903141526 | 72 | 360 | 0.0 | 0.0 | 0.00 | 0.02 | 0.02 | 81 | 1017.2 |
| 20260903140025 | 71 | 360 | 0.0 | 0.0 | 0.00 | 0.02 | 0.02 | 81 | 1017.3 |
| 20260903134525 | 71 | 289 | 0.0 | 0.0 | 0.00 | 0.02 | 0.02 | 82 | 1017.5 |
| 20260903133022 | 70 | 286 | 0.0 | 0.0 | 0.00 | 0.02 | 0.02 | 82 | 1017.5 |
| 20260903131522 | 70 | 292 | 0.0 | 0.0 | 0.00 | 0.02 | 0.02 | 82 | 1017.4 |
| 20260903130024 | 70 | 316 | 0.0 | 0.0 | 0.00 | 0.02 | 0.02 | 81 | 1017.3 |
| 20260903124521 | 70 | 290 | 0.0 | 0.0 | 0.00 | 0.02 | 0.02 | 82 | 1017.3 |
| 20260903123019 | 70 | 299 | 0.0 | 0.0 | 0.00 | 0.02 | 0.02 | 84 | 1017.3 |
| 20260903121515 | 69 | 284 | 0.0 | 0.0 | 0.00 | 0.02 | 0.02 | 87 | 1017.3 |
| 20260903120015 | 68 | 289 | 0.0 | 0.0 | 0.00 | 0.02 | 0.02 | 89 | 1017.3 |
| 20260903114513 | 67 | 360 | 0.0 | 0.0 | 0.00 | 0.02 | 0.02 | 89 | 1017.4 |
| 20260903113012 | 67 | 295 | 0.0 | 0.0 | 0.00 | 0.02 | 0.02 | 89 | 1017.4 |
| 20260903111511 | 67 | 286 | 0.0 | 0.0 | 0.00 | 0.02 | 0.02 | 88 | 1017.2 |
| 20260903110011 | 66 | 360 | 0.0 | 0.0 | 0.00 | 0.02 | 0.02 | 89 | 1017.2 |
| 20260903104512 | 66 | 287 | 0.0 | 0.0 | 0.00 | 0.02 | 0.02 | 89 | 1017.2 |
| 20260903103009 | 66 | 296 | 0.0 | 0.0 | 0.00 | 0.02 | 0.02 | 90 | 1017.2 |
| 20260903101521 | 66 | 294 | 0.0 | 0.0 | 0.01 | 0.02 | 0.02 | 90 | 1017.3 |
| 20260903100008 | 66 | 290 | 0.0 | 0.0 | 0.01 | 0.02 | 0.02 | 90 | 1017.2 |
| 20260903094508 | 66 | 290 | 0.0 | 0.0 | 0.02 | 0.02 | 0.02 | 90 | 1017.1 |
| 20260903093006 | 65 | 360 | 0.0 | 0.0 | 0.02 | 0.02 | 0.02 | 89 | 1016.9 |
| 20260903091506 | 65 | 360 | 0.0 | 0.0 | 0.02 | 0.02 | 0.02 | 87 | 1017.2 |
| 20260903090005 | 66 | 360 | 0.0 | 0.0 | 0.02 | 0.02 | 0.02 | 84 | 1017.2 |
| 20260903084509 | 67 | 289 | 0.0 | 0.0 | 0.00 | 0.00 | 0.00 | 79 | 1017.1 |
| 20260903083002 | 68 | 360 | 0.0 | 0.0 | 0.00 | 0.00 | 0.00 | 77 | 1017.0 |
| 20260903081502 | 68 | 284 | 0.0 | 0.0 | 0.00 | 0.00 | 0.00 | 76 | 1016.8 |
| 20260903080104 | 68 | 288 | 0.0 | 0.0 | 0.00 | 0.00 | 0.00 | 77 | 1016.8 |
| 20260903080000 | 68 | 360 | 0.0 | 0.0 | 0.00 | 0.00 | 0.00 | 77 | 1016.7 |
| 20260903074605 | 67 | 189 | 0.0 | 0.0 | 0.00 | 0.00 | 0.00 | 77 | 1016.9 |
| 20260903073057 | 67 | 290 | 0.0 | 0.0 | 0.00 | 0.00 | 0.00 | 76 | 1016.9 |
| 20260903071556 | 67 | 296 | 0.0 | 0.0 | 0.00 | 0.00 | 0.00 | 76 | 1017.0 |
| 20260903070053 | 66 | 360 | 0.0 | 0.0 | 0.00 | 0.00 | 0.00 | 76 | 1017.0 |
| 20260903064601 | 66 | 284 | 0.0 | 0.0 | 0.00 | 0.00 | 0.00 | 75 | 1016.9 |
| 20260903063049 | 65 | 360 | 0.0 | 0.0 | 0.00 | 0.00 | 0.00 | 74 | 1016.7 |